Weather in Yedelevo

Russia / Ulyanovsk Oblast     53°24′17″N   47°44′45″E
temp.,
°C
wind,
m/s
gust,
m/s
humid.,
%
clouds,
%
prec.,
mm/h
press.,
hPa
HPBL,
m
15 april, thu
thu1501:00+10se22870 0.0 102212
04:00+9ese22850 0.0 102111
07:00+9ese12840 0.0 102111
10:00+14sse23614 0.0 1020312
13:00+18sse33469 0.0 1019727
16:00+20sse35382 0.0 10181257
19:00+17se225291 0.0 101816
22:00+13ese2257100 0.0 101810
16 april, fri
fri1601:00+12se1160100 0.0 101810
04:00+11ne1160100 0.0 101810
07:00+10ne2268100 0.0 101923
10:00+14ene3557100 0.0 1019313
13:00+17ene4544100 0.0 1019915
16:00+18ene444158 0.0 10201563
19:00+14nne586960 0.0 1020321
22:00+10nne4118454 0.0 1021281
17 april, sat
sat1701:00+8ne4109010 0.0 1022246
04:00+7ne499562 0.0 1023208
07:00+7ne4109518 0.0 1023289
10:00+11ene58724 0.0 1023514
13:00+14ene67581 0.0 1023831
16:00+14ene67491 0.0 10231062
19:00+12ene59502 0.0 1023419
22:00+9ene613520 0.0 1022384
18 april, sun
sun1801:00+7ene613590 0.0 1022315
04:00+5ene411653 0.0 1022287
07:00+5ene41164100 0.0 1022372
10:00+8e5855100 0.1 1022549
13:00+9e4757100 0.9 1022870
16:00+8ne4870100 4.2 1023466
19:00+8nne3764100 0.3 1022142
22:00+8ne51260100 0.3 1023384
19 april, mon
mon1901:00+6ene71373100 0.0 1024450
04:00+4ene61276100 0.0 1025468
07:00+3ene61265100 0.0 1026464
10:00+5ene7106194 0.0 1026697
13:00+7ene795430 0.0 10261199
16:00+8e7953100 0.0 10251676
19:00+6e6961100 0.0 10251126
22:00+5e51070100 0.1 10261061